Regional Weather Roundup
Issued by NWS Green Bay, WI

Home | Current Version | Previous Version | Graphics & Text | Print | Product List | Glossary Off
Versions: 1 2 3 4 5 6 7 8 9 10 11 12 13 14 15 16 17 18 19 20 21 22 23 24 25 26 27 28 29 30 31 32 33 34 35 36 37 38 39 40 41 42 43 44 45 46 47 48 49 50

000
ASUS43 KGRB 010910
RWRGRB

NORTH-CENTRAL AND NORTHEAST WISCONSIN REGIONAL WEATHER ROUNDUP
NATIONAL WEATHER SERVICE GREEN BAY WI
300 AM CST SUN FEB 01 2015

WIZ005-009-010>012-018-019-011000-
NORTH CENTRAL WISCONSIN

CITY           SKY/WX    TMP DP  RH WIND       PRES   REMARKS
IRONWOOD       MOCLDY     3   0  85 E8        30.31S WCI -10
MANITOWISH WTR MOCLDY     2  -3  78 NE6       30.27S WCI  -9
ARBOR VITAE    CLOUDY     5   0  77 NE3       30.26S
EAGLE RIVER    MOCLDY     4  -3  73 NE3       30.25F
LAND O LAKES   MOCLDY     3  -1  81 N6        30.27F WCI  -8
RHINELANDER    CLOUDY     5  -2  72 NE6       30.24F WCI  -6
PHILLIPS       CLOUDY     6  -1  73 NE12G18   30.25R WCI -10
ANTIGO         CLOUDY     8   1  76 NE13      30.22F WCI  -8
TOMAHAWK       CLOUDY     7   0  74 NE6       30.25S WCI  -3
MERRILL        CLOUDY    10   1  69 NE10      30.24S WCI  -4
$$

WIZ013-073-011000-
NORTHEAST WISCONSIN

CITY           SKY/WX    TMP DP  RH WIND       PRES   REMARKS
IRON MOUNTAIN  CLOUDY     8   1  73 N6        30.28F WCI  -2
MARINETTE      CLOUDY    10   1  67 NE12      30.30F WCI  -4
OCONTO         CLOUDY    12   4  71 MISG      30.30F
$$

WIZ017-030-035>037-045-011000-
CENTRAL WISCONSIN

CITY           SKY/WX    TMP DP  RH WIND       PRES   REMARKS
MEDFORD        CLOUDY    11   4  72 NE15      30.19S WCI  -5
WAUSAU         CLOUDY    11   2  67 NE10G20   30.22S WCI  -3
MOSINEE        CLOUDY    12   9  85 NE13      30.22S WCI  -3
MARSHFIELD     LGT SNOW  15  10  80 NE16      30.18F WCI  -1
WISC RAPIDS    LGT SNOW  14   8  77 E14       30.21F WCI  -1
STEVENS POINT  LGT SNOW  10   5  79 NE13G22   30.22F WCI  -5
WAUPACA        LGT SNOW  15   8  73 NE8G16    30.24F WCI   4
SHAWANO        CLOUDY    14   5  67 NE13      30.28F WCI   0
CLINTONVILLE   CLOUDY    14   3  62 NE8G18    30.26F WCI   3
$$

WIZ038-039-048-051-011000-
FOX VALLEY

CITY           SKY/WX    TMP DP  RH WIND       PRES   REMARKS
NWS GREEN BAY  CLOUDY    14   6  70 NE18G28   30.26F WCI  -3
APPLETON       LGT SNOW  14   9  79 NE15G21   30.23F WCI  -1
OSHKOSH        LGT SNOW  14   9  80 NE21G30   30.21F WCI  -4
FOND DU LAC    LGT SNOW  16  11  80 NE23      30.20F WCI  -2
$$

WIZ022-050-052-011000-
EAST CENTRAL WISCONSIN

CITY           SKY/WX    TMP DP  RH WIND       PRES   REMARKS
STURGEON BAY   CLOUDY    12   5  73 N14       30.29F WCI  -3
MANITOWOC      FLURRIES  16  12  84 N12G17    30.22F WCI   3
SHEBOYGAN      LGT SNOW  17  13  84 N14G21    30.19F VSB 1   WCI   3
$$

LMZ563-521-522-541>543-011000-
LAKESHORE

STATION/POSITION TIME  TEMP    WIND        PRES    VSBY  WAVE
                       AIR SEA DIR/SP/G                  HT/PER
                 (UTC) (F)     (DEG/KT/KT) (MB)    (MI)  (FT/S)
SHEBOYGAN LKSHOR 0900   24      50/ 25/ 26 1023.3F
KEWAUNEE LKSHORE 0900   16      10/ 12/ 19 1023.9F
NORTHPORT PIER   0900   15      10/ 14/ 18 1026.8S
SISTER BAY LKSHO 0900   14      20/ 12/ 15   N/A
CHAMBERS ISLAND  0900   12     330/ 15/ 17 1026.4F
MENOMINEE LKSHOR 0900   12     350/ 13     1027.0F
$$


USA.gov is the U.S. government's official web portal to all federal, state and local government web resources and services.